Torna al catalogo

STARLINK-2430

AttivoComunicazioniVLEO
NORAD 48100·PAYLOAD·🇺🇸 United States

Lanciato Apr 7, 2021 da Cape Canaveral Space Force Station

Loading…

Prossimi Passaggi (prossime 24 ore)

TLE

AggiornatoSource: CelesTrak SupGP

Epoca: Sep 14, 2026, 20:06 UTC

1 48100C 21027J   26257.83798611 -.00007421  00000+0 -23859-3 0  2572
2 48100  53.1605 352.2308 0001157  80.8165 108.9630 15.31711672    12

Traccia STARLINK-2430 in tempo reale con AllMySat

Download on the App Store